Jennings, LA

4:02 AM CDT on September 29, 2016 (GMT -0500)
Jennings

Weather History for K3R7 - August, 2013

Change the Weather History Date:

Friday, August 23, 2013

  Actual Average (KLCH) Record (KLCH)
Temperature  
Mean Temperature 84 °F 83 °F  
Max Temperature 94 °F 92 °F 100 °F (1910)
Min Temperature 73 °F 74 °F 60 °F (1927)
Degree Days  
Heating Degree Days 0 0  
Month to date heating degree days 0  
Since 1 June heating degree days 0  
Since 1 July heating degree days 0  
Cooling Degree Days 18 18  
Month to date cooling degree days 414  
Year to date cooling degree days 1985  
Since 1 June cooling degree days 1447  
Growing Degree Days 34 (Base 50)    
Moisture  
Dew Point 73 °F    
Average Humidity 73    
Maximum Humidity 97    
Minimum Humidity 43    
Precipitation  
Precipitation 0.00 in 0.15 in 5.87 in (1977)
Month to date precipitation 3.61  
Year to date precipitation 36.97  
Snow  
Snow 0.00 in 0.00 in 0.00 in ()
Month to date snowfall 0.0  
Since 1 June snowfall 0.0  
Since 1 July snowfall 0.0  
Snow Depth -    
Sea Level Pressure  
Sea Level Pressure 29.96 in    
Wind  
Wind Speed 3 mph (ENE)    
Max Wind Speed 15 mph    
Max Gust Speed 23 mph    
Visibility 10 miles    
Events      
T = Trace of Precipitation, MM = Missing Value Source: NWS Daily Summary

Daily Weather History Graph

Daily Weather History Graph

Search for Another Location

Airport or City:

Trip Planner

Search our weather history database for the weather conditions in past years. The results will help you decide how hot, cold, wet, or windy it might be!

Date:

Astronomy

Aug. 23, 2013 Rise Set
Actual Time 6:42 AM CDT 7:43 PM CDT
Civil Twilight 6:17 AM CDT 8:08 PM CDT
Nautical Twilight 5:48 AM CDT 8:37 PM CDT
Astronomical Twilight 5:18 AM CDT 9:07 PM CDT
Moon 9:21 PM CDT (8/23) 9:21 AM CDT (8/23)
Length of Visible Light 13h 50m
Length of Day
13h 00m
Waning Gibbous, 91% of the Moon is Illuminated
Aug 23
Waning Gibbous
Aug 28
Last Quarter
Sep 5
New
Sep 12
First Quarter
Sep 19
Full

Hourly Weather History & Observations

Time (CDT) Temp. Heat Index Dew Point Humidity Pressure Visibility Wind Dir Wind Speed Gust Speed Precip Events Conditions
12:15 AM 77.4 °F - 73.0 °F 86% 30.01 in 10.0 mi Calm Calm - N/A   Clear
12:35 AM 77.0 °F - 73.4 °F 89% 30.00 in 10.0 mi Calm Calm - N/A   Clear
12:55 AM 75.7 °F - 73.2 °F 92% 30.00 in 10.0 mi Calm Calm - N/A   Clear
1:15 AM 74.8 °F - 73.6 °F 96% 30.00 in 10.0 mi Calm Calm - N/A   Clear
1:35 AM 75.0 °F - 74.1 °F 97% 30.00 in 10.0 mi Calm Calm - N/A   Clear
1:55 AM 75.4 °F - 74.5 °F 97% 29.99 in 10.0 mi Calm Calm - N/A   Clear
2:15 AM 75.4 °F - 74.5 °F 97% 29.99 in 10.0 mi Calm Calm - N/A   Clear
2:35 AM 75.2 °F - 73.9 °F 96% 29.99 in 10.0 mi Calm Calm - N/A   Clear
2:55 AM 75.2 °F - 73.8 °F 95% 29.98 in 10.0 mi Calm Calm - N/A   Clear
3:15 AM 74.8 °F - 73.6 °F 96% 29.98 in 10.0 mi Calm Calm - N/A   Clear
3:35 AM 75.2 °F - 73.4 °F 94% 29.97 in 10.0 mi Calm Calm - N/A   Clear
3:55 AM 74.8 °F - 73.4 °F 95% 29.97 in 10.0 mi Calm Calm - N/A   Clear
4:15 AM 74.3 °F - 72.9 °F 95% 29.97 in 10.0 mi Calm Calm - N/A   Clear
4:35 AM 74.1 °F - 72.9 °F 96% 29.97 in 10.0 mi Calm Calm - N/A   Clear
4:55 AM 74.3 °F - 72.7 °F 95% 29.97 in 10.0 mi Calm Calm - N/A   Clear
5:15 AM 73.8 °F - 72.7 °F 96% 29.97 in 10.0 mi Calm Calm - N/A   Clear
5:35 AM 73.8 °F - 72.7 °F 96% 29.98 in 10.0 mi Calm Calm - N/A   Clear
5:55 AM 73.8 °F - 72.7 °F 96% 29.98 in 10.0 mi Calm Calm - N/A   Clear
6:15 AM 74.5 °F - 72.9 °F 95% 29.98 in 10.0 mi Calm Calm - N/A   Clear
6:35 AM 74.3 °F - 72.9 °F 95% 29.99 in 10.0 mi Calm Calm - N/A   Clear
6:55 AM 74.3 °F - 72.9 °F 95% 29.99 in 10.0 mi Calm Calm - N/A   Clear
7:15 AM 74.7 °F - 73.4 °F 96% 30.00 in 10.0 mi Calm Calm - N/A   Clear
7:35 AM 75.4 °F - 73.6 °F 94% 30.00 in 10.0 mi Calm Calm - N/A   Clear
7:55 AM 76.8 °F - 74.3 °F 92% 30.01 in 10.0 mi Calm Calm - N/A   Clear
8:15 AM 77.9 °F - 74.3 °F 89% 30.00 in 10.0 mi North 3.5 mph - N/A   Clear
8:35 AM 79.5 °F - 74.7 °F 85% 30.01 in 10.0 mi North 4.6 mph - N/A   Clear
8:55 AM 81.5 °F 87.8 °F 75.0 °F 81% 30.00 in 10.0 mi NNE 4.6 mph - N/A   Clear
9:15 AM 82.6 °F 89.1 °F 74.3 °F 76% 30.00 in 10.0 mi North 4.6 mph - N/A   Clear
9:35 AM 83.5 °F 90.6 °F 74.5 °F 74% 30.01 in 10.0 mi North 3.5 mph - N/A   Clear
9:55 AM 84.4 °F 91.3 °F 73.6 °F 70% 30.01 in 10.0 mi North 6.9 mph - N/A   Clear
10:15 AM 85.1 °F 92.6 °F 73.9 °F 69% 30.01 in 10.0 mi North 5.8 mph - N/A   Clear
10:35 AM 85.6 °F 93.8 °F 74.5 °F 69% 30.00 in 10.0 mi NE 5.8 mph - N/A   Clear
10:55 AM 87.1 °F 95.4 °F 74.1 °F 65% 30.00 in 10.0 mi NNE 6.9 mph - N/A   Scattered Clouds
11:15 AM 87.8 °F 96.6 °F 74.3 °F 64% 30.00 in 10.0 mi North 4.6 mph - N/A   Scattered Clouds
11:35 AM 88.5 °F 96.3 °F 73.0 °F 60% 29.99 in 10.0 mi NE 6.9 mph - N/A   Scattered Clouds
11:55 AM 90.0 °F 99.0 °F 73.8 °F 59% 29.99 in 10.0 mi NNE 6.9 mph - N/A   Scattered Clouds
12:15 PM 89.8 °F 97.0 °F 72.0 °F 56% 29.98 in 10.0 mi NNE 4.6 mph - N/A   Mostly Cloudy
12:35 PM 90.1 °F 97.3 °F 72.0 °F 55% 29.97 in 10.0 mi ENE 8.1 mph 23.0 mph N/A   Mostly Cloudy
12:55 PM 91.6 °F 99.3 °F 72.3 °F 53% 29.97 in 10.0 mi East 8.1 mph - N/A   Scattered Clouds
1:15 PM 90.3 °F 97.2 °F 71.8 °F 54% 29.96 in 10.0 mi NE 9.2 mph - N/A   Mostly Cloudy
1:35 PM 91.8 °F 98.6 °F 71.2 °F 51% 29.95 in 10.0 mi ENE 8.1 mph 16.1 mph N/A   Scattered Clouds
1:55 PM 92.3 °F 99.2 °F 71.2 °F 50% 29.95 in 10.0 mi NE 5.8 mph - N/A   Mostly Cloudy
2:15 PM 93.0 °F 100.1 °F 71.4 °F 49% 29.94 in 10.0 mi ENE 8.1 mph - N/A   Scattered Clouds
2:35 PM 92.3 °F 99.7 °F 71.8 °F 51% 29.94 in 10.0 mi NE 9.2 mph - N/A   Scattered Clouds
2:55 PM 93.6 °F 100.7 °F 70.9 °F 48% 29.93 in 10.0 mi NE 10.4 mph 17.3 mph N/A   Scattered Clouds
3:15 PM 94.1 °F 100.6 °F 70.3 °F 46% 29.92 in 10.0 mi ENE 11.5 mph - N/A   Clear
3:35 PM 93.7 °F 101.1 °F 71.1 °F 48% 29.92 in 10.0 mi ENE 9.2 mph - N/A   Scattered Clouds
3:55 PM 94.6 °F 100.0 °F 69.3 °F 43% 29.91 in 10.0 mi ENE 13.8 mph - N/A   Scattered Clouds
4:15 PM 94.8 °F 101.5 °F 70.2 °F 45% 29.91 in 10.0 mi NE 12.7 mph 17.3 mph N/A   Clear
4:35 PM 94.3 °F 101.0 °F 70.3 °F 46% 29.90 in 10.0 mi ENE 12.7 mph - N/A   Clear
4:55 PM 93.6 °F 99.5 °F 70.2 °F 46% 29.91 in 10.0 mi ENE 9.2 mph 17.3 mph N/A   Scattered Clouds
5:15 PM 92.5 °F 98.4 °F 70.0 °F 48% 29.90 in 10.0 mi ENE 11.5 mph - N/A   Scattered Clouds
5:35 PM 92.3 °F 99.2 °F 71.1 °F 50% 29.89 in 10.0 mi East 8.1 mph 11.5 mph N/A   Scattered Clouds
5:55 PM 92.5 °F 98.4 °F 70.3 °F 48% 29.89 in 10.0 mi East 15.0 mph - N/A   Clear
6:15 PM 91.8 °F 98.1 °F 70.9 °F 50% 29.89 in 10.0 mi ENE 10.4 mph - N/A   Clear
6:35 PM 91.2 °F 98.0 °F 71.2 °F 52% 29.89 in 10.0 mi ENE 10.4 mph - N/A   Clear
6:55 PM 90.0 °F 96.4 °F 71.2 °F 54% 29.89 in 10.0 mi East 8.1 mph - N/A   Scattered Clouds
7:15 PM 88.7 °F 95.2 °F 71.8 °F 57% 29.89 in 10.0 mi East 10.4 mph - N/A   Mostly Cloudy
7:35 PM 88.0 °F 94.7 °F 71.8 °F 59% 29.90 in 10.0 mi East 8.1 mph - N/A   Mostly Cloudy
7:55 PM 86.5 °F 92.9 °F 72.1 °F 62% 29.91 in 10.0 mi East 8.1 mph - N/A   Mostly Cloudy
8:15 PM 85.1 °F 91.5 °F 72.5 °F 66% 29.92 in 10.0 mi East 9.2 mph - N/A   Scattered Clouds
8:35 PM 83.8 °F 89.5 °F 72.1 °F 68% 29.92 in 10.0 mi ESE 11.5 mph - N/A   Scattered Clouds
8:55 PM 82.4 °F 87.2 °F 71.6 °F 70% 29.93 in 10.0 mi SE 9.2 mph - N/A   Clear
9:15 PM 81.7 °F 86.0 °F 71.6 °F 71% 29.94 in 10.0 mi ESE 8.1 mph - N/A   Clear
9:35 PM 80.8 °F 84.9 °F 71.8 °F 74% 29.96 in 10.0 mi ESE 8.1 mph - N/A   Clear
9:55 PM 80.2 °F 84.2 °F 72.0 °F 76% 29.97 in 10.0 mi SE 5.8 mph - N/A   Clear
10:15 PM 79.7 °F - 72.5 °F 79% 29.98 in 10.0 mi SE 5.8 mph - N/A   Clear
10:35 PM 79.2 °F - 72.5 °F 80% 29.99 in 10.0 mi ESE 4.6 mph - N/A   Clear
10:55 PM 78.4 °F - 72.9 °F 83% 29.99 in 10.0 mi ESE 4.6 mph - N/A   Clear
11:15 PM 78.3 °F - 73.0 °F 84% 29.99 in 10.0 mi ESE 4.6 mph - N/A   Clear
11:35 PM 77.7 °F - 73.0 °F 85% 29.99 in 10.0 mi East 4.6 mph - N/A   Clear
11:55 PM 77.4 °F - 73.2 °F 87% 29.99 in 10.0 mi ESE 5.8 mph - N/A   Clear